Location: Stara Lesna
(49.1528°N, 20.2911°E)
Time: 23:34:07
(UTC+02:00)

ARIANE 5 R/B - Pass Details

Date: 21 September 2019
Orbit: 748 x 795 km, 98.6° (Epoch: 16 October)

Event Time Altitude Azimuth Distance (km) Brightness Sun altitude
Rises 03:53:49 0° 11° (N) 3,269 6.4 -23.9°
Reaches altitude 10° 03:56:11 10° 7° (N) 2,330 5.5 -23.6°
Maximum altitude 04:01:11 56° 291° (WNW) 915 2.6 -22.9°
Enters shadow 04:01:36 54° 271° (W) 931 2.6 -22.8°
